Notices

What's New in latest Release from April 7th, 2021:

- Updated Glossary, including Speed of Maximum Gust, and Total Hourly Precipitation

- Updated national and regional climate services offices contacts and prices information

- Addition of station inventory lists for 1981-2010, 1971-2000, and 1961-1990 Normals.

If you haven't already, please take our survey and provide feedback about our website: https://eccc.sondage-survey.ca/f/LanguageSelection.aspx?s=442ca660-fcf1-47c0-95a9-59707d6fd709

Hourly Data Report for April 11, 2017

KENORA A
ONTARIO

49°47'18.000" N
94°21'47.000" W
409.70 m
6034076
71850
YQK

Download Data

Hourly Data (April 2017)
Hourly Data Report for April 11, 2017
TIME
LST
Temp Definition
°C
Dew Point Definition
°C
Rel Hum Definition
%
Precip. Amount Definition
mm

Wind Dir Definition
10's deg

Wind Spd Definition
km/h
Visibility Definition
km
Stn Press Definition
kPa
Hmdx Definition


Wind Chill Definition


Weather Definition


00:00 -1.9 -14.5 38   11 12 24.1 97.47   -6 Mainly Clear
01:00 -2.2 -14.1 40   13 9 24.1 97.47   -6 LegendNANA
02:00 -2.3 -13.9 41   12 9 24.1 97.46   -6 LegendNANA
03:00 -3.3 -13.4 46   11 11 24.1 97.42   -8 Clear
04:00 -3.3 -13.6 45   10 8 24.1 97.43   -7 LegendNANA
05:00 -3.2 -13.8 44   14 9 24.1 97.46   -7 LegendNANA
06:00 -3.5 -13.5 46   13 9 24.1 97.47   -7 Mainly Clear
07:00 -1.6 -13.2 41   15 8 24.1 97.50   -5 LegendNANA
08:00 0.9 -12.2 37   16 12 24.1 97.47     LegendNANA
09:00 2.8 -14.0 28   20 10 24.1 97.48     Mainly Clear
10:00 4.1 -14.8 24   22 9 24.1 97.47     LegendNANA
11:00 5.0 -14.0 24   29 3 24.1 97.43     LegendNANA
12:00 6.0 -13.7 23   27 5 24.1 97.38     Mainly Clear
13:00 8.3 -12.3 22   21 11 24.1 97.32     LegendNANA
14:00 8.2 -13.5 20   20 17 24.1 97.27     LegendNANA
15:00 8.3 -14.1 19   18 13 24.1 97.22     Mostly Cloudy
16:00 8.1 -14.3 19   24 18 24.1 97.21     LegendNANA
17:00 7.4 -13.6 21   22 15 24.1 97.20     LegendNANA
18:00 6.5 -12.7 24   20 7 24.1 97.20     Mostly Cloudy
19:00 5.9 -12.7 25   19 8 24.1 97.18     LegendNANA
20:00 5.6 -12.5 26   17 6 24.1 97.20     LegendNANA
21:00 5.1 -12.5 27   17 5 24.1 97.22     Mostly Cloudy
22:00 4.2 -12.8 28   16 5 24.1 97.22     LegendNANA
23:00 3.3 -13.1 29   17 8 24.1 97.23     LegendNANA

Notes on Data Quality.

Legend

  • E = Estimated
  • M = Missing
  • NA = Not Available*
  • [empty] = Indicates an unobserved value
Date modified: